Change the Weather History Date:

Saturday, November 8, 2014

  Actual Average Record
Temperature  
Mean Temperature 46 °F 35 °F  
Max Temperature 61 °F 47 °F 73 °F (2004)
Min Temperature 30 °F 24 °F -9 °F (1966)
Degree Days  
Heating Degree Days 19 30  
Month to date heating degree days 162 227  
Since 1 July heating degree days 944 1365  
Cooling Degree Days 0 0  
Month to date cooling degree days 0 0  
Year to date cooling degree days 295 210  
Moisture  
Dew Point 24 °F    
Average Humidity 51    
Maximum Humidity 85    
Minimum Humidity 17    
Precipitation  
Precipitation 0.00 in 0.02 in 0.59 in (2010)
Month to date precipitation 0.12 0.19  
Year to date precipitation 17.55 15.67  
Snow  
Snow 0.00 in - - ()
Snow Depth 0.00 in    
Sea Level Pressure  
Sea Level Pressure 30.04 in    
Wind  
Wind Speed 10 mph (WSW)    
Max Wind Speed 28 mph    
Max Gust Speed 33 mph    
Visibility 10 miles    
Events      
T = Trace of Precipitation, MM = Missing Value Source: NWS Daily Summary

Daily Weather History Graph

Daily Weather History Graph

Search for Another Location

Airport or City:

Trip Planner

Search our weather history database for the weather conditions in past years. The results will help you decide how hot, cold, wet, or windy it might be!

Date:

Astronomy

Nov. 08, 2014 Rise Set
Actual Time 7:11 AM MST 4:51 PM MST
Civil Twilight 6:38 AM MST 5:23 PM MST
Nautical Twilight 6:02 AM MST 6:00 PM MST
Astronomical Twilight 5:26 AM MST 6:36 PM MST
Moon 6:32 PM MST (11/8) 8:53 AM MST (11/8)
Length of Visible Light 10h 45m
Length of Day
9h 40m
Waning Gibbous, 96% of the Moon is Illuminated
Nov 8
Waning Gibbous
Nov 14
Last Quarter
Nov 22
New
Nov 29
First Quarter
Dec 6
Full

Hourly Weather History & Observations

Time (MST) Temp. Windchill Dew Point Humidity Pressure Visibility Wind Dir Wind Speed Gust Speed Precip Events Conditions
12:54 AM 32.0 °F 27.5 °F 28.9 °F 88% 30.27 in 10.0 mi ENE 4.6 mph - N/A   Clear
1:54 AM 30.0 °F 24.1 °F 27.0 °F 88% 30.24 in 10.0 mi ESE 5.8 mph - N/A   Clear
2:54 AM 30.9 °F 26.2 °F 27.0 °F 85% 30.21 in 10.0 mi ESE 4.6 mph - N/A   Clear
3:54 AM 30.0 °F 25.2 °F 26.1 °F 85% 30.19 in 10.0 mi SSE 4.6 mph - N/A   Clear
4:54 AM 32.0 °F 23.0 °F 26.1 °F 79% 30.17 in 10.0 mi SW 11.5 mph - N/A   Clear
5:54 AM 37.0 °F - 26.1 °F 65% 30.15 in 10.0 mi Calm Calm - N/A   Clear
6:54 AM 36.0 °F 26.3 °F 27.0 °F 70% 30.15 in 10.0 mi SW 16.1 mph - N/A   Clear
7:54 AM 37.0 °F 28.5 °F 28.0 °F 70% 30.14 in 10.0 mi SW 13.8 mph - N/A   Clear
8:54 AM 50.0 °F - 30.0 °F 46% 30.10 in 10.0 mi WSW 9.2 mph - N/A   Scattered Clouds
9:54 AM 53.1 °F - 24.1 °F 32% 30.09 in 10.0 mi West 9.2 mph - N/A   Clear
10:54 AM 55.9 °F - 25.0 °F 30% 30.07 in 10.0 mi West 4.6 mph - N/A   Partly Cloudy
11:54 AM 57.0 °F - 26.1 °F 30% 30.04 in 10.0 mi West 5.8 mph - N/A   Clear
12:54 PM 61.0 °F - 17.1 °F 18% 29.99 in 10.0 mi WNW 21.9 mph 32.2 mph N/A   Clear
1:54 PM 61.0 °F - 15.1 °F 17% 29.98 in 10.0 mi WNW 20.7 mph 31.1 mph N/A   Clear
2:54 PM 60.1 °F - 16.0 °F 18% 29.97 in 10.0 mi NW 17.3 mph 29.9 mph N/A   Clear
3:54 PM 59.0 °F - 18.0 °F 20% 29.95 in 10.0 mi NW 13.8 mph 29.9 mph N/A   Clear
4:54 PM 53.1 °F - 21.0 °F 29% 29.96 in 10.0 mi West 8.1 mph - N/A   Clear
5:54 PM 46.9 °F - 21.9 °F 37% 29.96 in 10.0 mi SW 9.2 mph - N/A   Clear
6:54 PM 46.0 °F 41.0 °F 21.0 °F 37% 29.96 in 10.0 mi WSW 10.4 mph - N/A   Clear
7:54 PM 43.0 °F 37.2 °F 23.0 °F 45% 29.95 in 10.0 mi WSW 10.4 mph - N/A   Clear
8:54 PM 41.0 °F 34.7 °F 23.0 °F 49% 29.90 in 10.0 mi WSW 10.4 mph - N/A   Clear
9:54 PM 42.1 °F 35.7 °F 25.0 °F 51% 29.88 in 10.0 mi WSW 11.5 mph - N/A   Partly Cloudy
10:54 PM 44.1 °F 39.5 °F 26.1 °F 49% 29.86 in 10.0 mi SW 8.1 mph - N/A   Scattered Clouds
11:54 PM 48.0 °F - 28.0 °F 46% 29.84 in 10.0 mi WNW 6.9 mph - N/A   Overcast